Wind_Speed
32 35 23 21 22 23 26 29 30 25 21 29 26 27 24 20 15 13 13 17 22 23 21 19 24 26 28 30 31 23 24 26 20 21 20 19 22 23 18 21 23 14 7 13
32 22 21 28 29 29 33 35 34 27 24 31 31 28 24 22 15 10 9 13 18 20 19 17 22 24 27 27 29 21 21 23 19 18 20 21 20 26 24 21 30 23 19 21
29 18 24 26 27 32 33 34 30 30 28 30 34 32 24 24 19 13 12 13 16 20 18 16 20 22 25 25 26 18 19 21 17 16 21 19 18 19 20 22 28 29 24 24
32 27 27 28 29 32 32 27 31 32 31 29 34 32 25 23 19 21 15 14 16 19 16 13 17 19 22 23 23 15 16 19 17 14 12 20 27 22 24 25 30 27 26 23
23 26 30 32 28 30 29 30 34 33 32 31 33 34 28 21 22 23 14 11 18 18 13 10 15 16 19 20 20 14 12 15 16 17 24 19 16 18 12 18 19 22 22 21
24 29 35 35 33 32 32 34 35 35 33 32 30 28 27 23 21 15 10 14 17 16 9 9 12 13 16 16 17 12 9 12 13 13 17 18 20 22 20 18 15 18 19 24
20 18 28 35 35 33 35 34 34 34 30 29 21 26 28 21 14 9 7 10 16 11 6 7 10 10 12 12 13 12 11 8 11 10 13 15 18 19 16 15 18 13 14 19
23 21 19 24 29 31 32 33 33 32 29 28 26 27 28 16 12 12 14 11 12 9 5 6 9 6 9 9 10 10 7 9 7 10 11 14 14 14 18 21 20 18 17 19
25 23 19 23 24 27 31 34 29 31 29 30 29 24 18 7 12 13 10 11 11 6 5 5 7 4 6 7 9 6 11 6 7 8 8 11 12 13 17 17 15 19 19 22
29 27 22 24 27 30 33 30 32 32 30 26 24 21 9 12 10 14 16 12 8 6 5 4 5 1 4 6 8 7 6 8 5 7 9 10 11 11 13 15 16 21 21 20
32 31 26 30 33 32 35 37 33 32 30 25 23 15 6 14 17 16 16 11 9 5 4 4 3 0 2 4 6 7 7 7 6 7 10 10 10 11 9 12 15 16 15 12
35 34 36 30 33 36 37 37 32 32 29 27 26 10 9 6 14 19 3 7 8 4 2 3 1 2 1 3 5 5 7 8 10 8 11 12 13 13 13 11 12 14 15 15
38 40 37 35 39 38 39 37 36 32 33 29 25 14 9 10 14 16 14 9 5 6 2 2 3 4 1 3 6 5 4 8 12 14 16 15 14 16 18 15 14 14 18 17
43 43 42 39 29 30 33 34 33 33 35 30 22 14 9 14 15 16 15 11 9 7 4 4 4 5 4 5 7 8 4 6 10 14 15 15 16 17 15 15 17 17 16 18
48 44 41 38 33 32 31 31 30 31 30 34 19 20 15 17 22 20 15 16 13 9 8 5 5 6 6 7 8 8 7 6 7 10 12 12 12 14 14 15 15 17 19 19
50 46 45 43 39 37 37 37 34 35 32 31 23 23 15 15 22 20 15 19 16 12 11 9 8 7 9 8 10 9 7 7 8 7 9 11 11 14 15 15 16 17 18 18
53 51 48 47 42 41 43 42 37 36 36 29 29 20 21 22 26 25 23 17 16 20 18 16 12 11 10 11 11 11 8 6 8 9 9 10 11 13 17 17 17 18 19 19
54 53 51 51 47 49 41 31 31 31 31 31 25 24 24 28 30 28 22 19 19 25 19 17 17 13 11 12 12 12 9 8 7 9 10 12 12 12 15 17 16 16 15 15
59 55 55 55 52 47 43 41 35 30 25 32 23 21 24 26 26 22 19 16 16 25 23 19 19 18 14 13 15 14 11 10 9 9 10 10 11 12 13 15 14 13 12 11
66 60 58 58 55 50 44 44 37 34 31 28 27 26 26 28 31 15 24 18 22 27 27 22 20 18 17 15 16 17 13 11 11 11 11 10 10 11 11 10 10 11 10 8
71 69 65 61 58 51 49 48 37 35 28 19 26 25 30 34 17 20 29 21 24 31 29 24 23 20 21 21 19 19 17 13 13 13 13 12 10 9 8 8 7 6 5 5
72 72 71 67 60 54 53 51 45 35 24 16 23 28 30 33 26 28 27 29 29 34 26 28 25 27 22 21 19 20 20 21 19 17 14 13 11 8 7 6 6 6 5 5
77 74 73 70 57 54 54 55 43 34 33 29 29 27 27 27 31 29 25 30 27 23 22 23 25 28 24 22 19 22 25 25 21 19 19 17 15 14 13 12 12 11 10 9
77 76 76 74 69 62 61 58 47 45 22 32 30 31 23 30 29 28 23 30 25 20 20 26 29 26 25 24 21 20 23 27 25 23 23 22 21 19 18 18 17 16 16 16
76 74 77 77 73 65 63 62 52 46 38 28 24 27 27 29 30 31 30 36 33 31 22 22 23 24 24 28 25 23 21 22 24 26 26 25 24 23 22 21 22 22 21 21
74 75 76 75 70 68 68 65 58 45 40 44 37 27 25 25 23 31 29 31 28 36 35 30 27 24 27 25 26 26 26 23 22 23 24 25 25 24 23 23 24 25 25 25
Wind_Direction
256 256 266 260 251 243 254 261 262 264 273 276 275 287 288 305 306 314 303 314 314 321 330 339 336 340 342 345 348 349 5 0 6 4 17 33 33 50 62 58 50 50 86 96
255 268 268 258 255 255 258 254 258 262 268 274 273 283 291 300 318 317 303 306 317 320 330 341 336 342 343 346 349 350 11 5 18 24 37 53 61 57 62 66 64 72 103 98
254 259 252 251 250 250 253 253 261 265 265 272 278 280 285 291 326 314 277 285 309 313 329 341 337 344 341 348 349 352 15 10 25 45 55 54 53 60 68 66 72 75 95 79
245 245 252 252 251 251 254 261 260 260 267 271 270 277 274 289 318 314 296 284 298 306 324 341 338 346 339 352 349 355 23 17 35 53 62 64 77 80 70 67 72 85 83 90
255 244 252 257 257 251 251 250 254 258 263 267 272 276 288 298 308 301 288 300 301 305 326 344 339 346 338 356 351 358 32 28 43 66 94 74 54 80 79 70 81 81 81 98
244 236 237 247 247 244 248 249 257 262 263 267 270 285 284 293 303 294 295 289 295 305 330 342 342 347 339 0 2 1 40 37 49 73 85 74 77 75 82 72 39 78 85 77
256 243 241 243 245 245 249 253 256 261 266 271 279 277 280 293 287 282 296 306 297 301 327 339 343 345 339 2 4 8 28 61 61 75 87 74 69 96 93 78 80 70 99 96
250 245 236 254 251 248 250 249 253 263 264 264 265 275 285 294 278 269 292 276 293 292 318 338 342 342 342 5 8 11 32 54 80 82 87 89 77 78 84 89 91 85 96 96
247 251 236 238 243 240 243 248 254 259 265 269 264 267 289 243 262 277 268 278 283 281 320 343 338 339 346 15 16 16 39 66 77 117 102 100 92 97 97 86 101 98 98 101
241 244 228 235 242 240 241 241 244 252 260 261 263 269 291 223 242 268 279 271 284 293 317 345 329 339 340 32 23 4 27 63 75 113 133 114 106 98 98 93 89 111 109 108
237 237 224 230 246 247 246 248 244 249 252 261 265 262 258 239 248 260 262 255 265 274 307 334 326 176 324 51 43 15 33 55 84 111 130 131 118 111 108 103 105 107 114 113
239 239 239 227 239 245 244 246 245 249 253 261 267 228 262 294 257 289 248 258 242 227 270 309 278 179 289 66 60 37 39 59 96 99 124 124 120 120 116 112 107 113 117 116
227 232 235 232 231 242 248 243 242 245 250 254 262 218 253 267 263 269 263 228 216 218 206 252 195 175 171 78 74 68 57 78 100 99 99 117 123 117 114 107 106 116 117 110
222 228 237 245 248 244 249 254 249 242 247 253 249 241 228 240 241 241 247 219 196 205 200 190 178 185 167 114 91 78 92 94 106 110 108 106 107 108 107 108 106 113 116 117
221 231 237 244 234 229 233 239 248 250 253 254 255 250 243 264 252 223 246 231 218 194 202 197 181 184 178 143 117 94 97 121 110 113 116 112 109 109 111 112 113 115 116 115
221 225 231 236 236 235 237 246 234 239 239 243 249 239 240 261 239 232 228 213 214 203 207 212 187 183 187 170 139 118 103 123 129 121 117 115 121 120 113 112 117 118 117 116
216 220 225 231 233 236 242 238 240 235 233 237 238 238 239 244 249 235 231 221 222 208 210 201 197 190 190 188 168 142 129 132 142 141 137 128 123 127 123 120 118 119 120 120
218 218 223 228 227 235 248 234 241 249 241 233 240 231 249 254 240 230 227 230 224 213 207 214 199 201 193 198 184 159 151 154 156 153 149 141 134 133 135 134 133 130 127 126
217 219 223 229 232 237 240 239 231 245 244 240 239 230 232 237 229 218 214 217 235 218 214 209 214 204 201 189 189 179 165 160 165 153 156 157 155 155 155 151 154 157 159 162
215 218 221 226 231 236 239 239 239 239 239 231 233 232 234 235 225 226 231 223 227 212 212 208 223 212 207 200 188 191 187 170 176 176 167 166 161 153 151 156 166 177 186 197
216 215 221 225 228 234 236 236 236 234 239 238 238 242 240 240 249 207 228 236 226 206 214 216 218 223 213 208 198 195 206 206 197 189 181 175 178 174 168 164 161 163 175 198
218 216 219 224 228 232 233 236 236 243 227 217 237 243 247 238 230 213 235 235 226 213 219 220 227 220 225 219 211 209 205 220 215 206 206 206 205 210 222 219 213 212 216 227
220 217 219 225 231 233 234 240 241 225 249 240 235 247 253 227 224 233 247 219 202 201 228 233 227 218 221 226 218 217 221 224 224 224 228 232 233 237 244 245 250 253 255 264
218 217 216 221 227 231 235 239 241 243 256 240 229 252 264 249 238 222 207 214 216 215 231 234 231 231 222 224 229 226 228 232 229 228 233 238 242 243 241 242 248 258 267 271
217 218 217 218 223 227 230 236 239 244 241 250 256 259 264 264 244 230 222 218 223 230 219 208 216 230 227 220 222 233 235 233 234 235 237 240 244 245 244 248 254 259 265 269
217 216 218 219 222 227 232 237 238 242 246 258 258 252 249 245 237 236 232 222 234 220 217 222 218 223 223 224 226 233 232 230 230 237 240 243 243 245 247 249 254 260 263 266
Height
5807 5808 5814 5818 5818 5818 5817 5816 5817 5818 5818 5815 5817 5815 5816 5813 5811 5807 5805 5804 5801 5797 5792 5787 5783 5778 5772 5767 5759 5751 5747 5741 5735 5729 5723 5717 5712 5706 5702 5698 5694 5692 5691 5691
5801 5808 5810 5809 5809 5811 5812 5811 5812 5814 5814 5811 5810 5812 5812 5809 5810 5805 5802 5801 5798 5795 5791 5786 5782 5777 5771 5766 5759 5753 5749 5744 5738 5732 5726 5721 5717 5713 5709 5705 5701 5698 5695 5696
5799 5806 5802 5803 5804 5805 5806 5806 5809 5809 5809 5807 5805 5806 5808 5807 5805 5803 5799 5798 5795 5792 5789 5784 5781 5776 5771 5766 5760 5755 5751 5746 5740 5736 5733 5727 5721 5718 5716 5712 5709 5707 5706 5705
5792 5796 5796 5796 5798 5800 5802 5804 5802 5802 5802 5803 5801 5801 5805 5805 5802 5799 5797 5795 5792 5790 5786 5782 5780 5775 5771 5766 5761 5756 5753 5749 5744 5740 5736 5732 5728 5725 5724 5722 5719 5716 5716 5714
5788 5791 5791 5790 5795 5795 5797 5797 5795 5797 5797 5798 5799 5797 5799 5801 5798 5795 5793 5791 5790 5788 5784 5781 5779 5775 5771 5767 5762 5758 5756 5752 5748 5745 5740 5738 5733 5732 5730 5728 5727 5726 5724 5723
5779 5782 5782 5784 5788 5789 5790 5790 5791 5791 5793 5794 5795 5795 5794 5794 5794 5793 5790 5789 5787 5785 5781 5780 5778 5775 5772 5768 5763 5759 5757 5755 5752 5749 5746 5743 5740 5738 5737 5736 5733 5732 5731 5730
5773 5776 5778 5779 5780 5783 5784 5786 5786 5786 5788 5791 5790 5789 5789 5792 5791 5790 5788 5787 5785 5783 5780 5778 5777 5774 5772 5768 5765 5761 5758 5757 5755 5753 5751 5748 5745 5744 5743 5741 5740 5740 5738 5739
5765 5768 5772 5774 5775 5779 5779 5779 5780 5781 5784 5786 5785 5785 5785 5789 5789 5788 5786 5784 5783 5782 5778 5777 5776 5774 5772 5769 5766 5764 5760 5758 5756 5756 5754 5753 5750 5749 5748 5747 5746 5744 5744 5745
5759 5763 5767 5766 5770 5772 5773 5773 5777 5775 5776 5779 5781 5783 5784 5785 5785 5784 5783 5782 5781 5780 5777 5776 5775 5774 5773 5769 5767 5767 5763 5761 5759 5758 5758 5757 5756 5754 5754 5753 5752 5752 5751 5751
5753 5756 5760 5763 5763 5763 5764 5769 5770 5770 5771 5773 5775 5777 5781 5781 5781 5782 5782 5779 5778 5778 5777 5775 5775 5774 5773 5771 5769 5768 5765 5763 5761 5760 5760 5760 5760 5759 5759 5759 5757 5757 5758 5759
5744 5748 5755 5755 5755 5757 5758 5758 5763 5766 5766 5768 5770 5775 5777 5777 5778 5779 5779 5778 5777 5776 5776 5775 5775 5774 5774 5772 5770 5770 5767 5765 5763 5762 5760 5762 5762 5763 5762 5762 5763 5763 5763 5764
5735 5739 5740 5749 5751 5750 5751 5753 5757 5759 5762 5763 5766 5770 5773 5774 5775 5775 5773 5774 5774 5774 5775 5776 5775 5775 5775 5773 5772 5772 5770 5768 5765 5764 5762 5763 5764 5766 5766 5766 5766 5767 5768 5769
5724 5726 5732 5738 5741 5742 5743 5746 5750 5754 5756 5756 5761 5767 5769 5770 5772 5774 5774 5773 5772 5774 5774 5776 5775 5776 5776 5774 5774 5774 5773 5772 5770 5768 5766 5766 5767 5769 5770 5771 5771 5772 5773 5774
5713 5718 5722 5728 5738 5738 5739 5741 5745 5748 5748 5752 5756 5762 5765 5766 5767 5768 5771 5771 5770 5772 5774 5775 5775 5776 5777 5776 5775 5776 5776 5776 5775 5773 5772 5771 5771 5772 5774 5775 5776 5777 5778 5779
5703 5710 5716 5722 5729 5729 5732 5736 5740 5740 5745 5745 5754 5757 5762 5760 5762 5764 5766 5768 5770 5771 5773 5775 5775 5776 5777 5777 5777 5777 5779 5779 5778 5777 5777 5776 5776 5775 5777 5779 5780 5781 5782 5784
5694 5703 5708 5713 5720 5723 5724 5726 5730 5733 5737 5739 5745 5751 5757 5757 5758 5762 5764 5766 5768 5769 5770 5773 5775 5776 5777 5779 5779 5779 5780 5782 5781 5781 5781 5780 5780 5780 5780 5782 5784 5785 5786 5788
5685 5692 5698 5703 5712 5714 5712 5719 5724 5726 5729 5736 5738 5749 5751 5750 5752 5757 5759 5762 5763 5766 5767 5768 5772 5774 5776 5778 5779 5780 5780 5782 5784 5784 5785 5784 5784 5785 5784 5786 5787 5789 5791 5792
5675 5683 5687 5693 5702 5699 5707 5717 5720 5721 5725 5730 5735 5742 5746 5746 5748 5752 5755 5757 5760 5763 5766 5767 5767 5772 5774 5777 5779 5781 5781 5782 5784 5785 5786 5787 5787 5788 5788 5789 5792 5794 5794 5796
5663 5671 5678 5682 5689 5695 5700 5706 5713 5716 5721 5726 5731 5735 5738 5739 5743 5748 5752 5753 5756 5760 5763 5764 5766 5768 5772 5774 5777 5780 5781 5782 5784 5785 5787 5788 5789 5790 5791 5792 5794 5796 5798 5799
5651 5660 5667 5674 5678 5682 5692 5700 5709 5714 5713 5721 5724 5728 5731 5734 5737 5748 5747 5750 5752 5755 5758 5761 5764 5765 5769 5771 5774 5778 5780 5782 5784 5785 5786 5788 5790 5791 5792 5794 5795 5796 5798 5799
5636 5644 5652 5660 5667 5675 5682 5691 5699 5702 5715 5719 5720 5723 5724 5728 5738 5742 5740 5745 5748 5751 5754 5757 5761 5763 5765 5767 5771 5775 5778 5780 5782 5785 5786 5787 5789 5791 5792 5793 5794 5796 5797 5798
5625 5635 5642 5651 5658 5666 5674 5680 5689 5699 5709 5711 5713 5715 5719 5725 5730 5732 5737 5739 5743 5746 5749 5755 5757 5759 5762 5764 5768 5771 5775 5776 5778 5782 5785 5786 5788 5790 5791 5792 5793 5794 5796 5797
5608 5622 5636 5644 5653 5660 5666 5674 5686 5692 5702 5705 5707 5711 5713 5718 5724 5727 5731 5735 5738 5742 5747 5750 5753 5754 5759 5762 5763 5767 5769 5772 5776 5779 5782 5783 5785 5787 5788 5789 5790 5791 5793 5793
5598 5611 5623 5634 5643 5652 5660 5668 5676 5685 5694 5694 5700 5703 5707 5713 5718 5721 5726 5731 5734 5735 5739 5743 5748 5751 5755 5758 5761 5761 5764 5767 5771 5774 5777 5778 5781 5783 5784 5785 5787 5788 5789 5790
5589 5603 5613 5623 5632 5642 5650 5657 5667 5674 5685 5686 5693 5696 5700 5703 5710 5714 5718 5722 5727 5730 5732 5738 5744 5747 5751 5753 5755 5756 5759 5761 5764 5767 5770 5773 5775 5777 5779 5781 5782 5783 5784 5785
5578 5591 5600 5614 5628 5634 5640 5648 5658 5670 5677 5681 5685 5689 5692 5697 5702 5705 5709 5713 5718 5723 5727 5731 5736 5741 5746 5748 5748 5750 5754 5756 5758 5761 5764 5767 5769 5771 5773 5775 5776 5777 5778 5779